| time (UTC) | temp C | wind direction | speed KPH | gust KPH | rain 1hr cm | rain 24hr cm | rain mn cm | humidity % | barometer mb |
| 20260505180047 | 14 | 0 | 1.6 | 16.1 | 0.00 | 0.00 | 0.00 | 56 | 1011.3 |
| 20260505174541 | 14 | 54 | 0.0 | 8.0 | 0.00 | 0.00 | 0.00 | 54 | 1011.3 |
| 20260505173035 | 15 | 0 | 3.2 | 16.1 | 0.00 | 0.00 | 0.00 | 53 | 1011.2 |
| 20260505171544 | 15 | 28 | 3.2 | 11.3 | 0.00 | 0.00 | 0.00 | 54 | 1011.2 |
| 20260505170040 | 15 | 60 | 3.2 | 12.9 | 0.00 | 0.00 | 0.00 | 51 | 1011.3 |
| 20260505164541 | 15 | 65 | 4.8 | 16.1 | 0.00 | 0.00 | 0.00 | 51 | 1011.2 |
| 20260505163034 | 15 | 88 | 3.2 | 12.9 | 0.00 | 0.00 | 0.00 | 50 | 1011.3 |
| 20260505161533 | 15 | 76 | 4.8 | 17.7 | 0.00 | 0.00 | 0.00 | 47 | 1011.4 |
| 20260505153036 | 16 | 62 | 4.8 | 16.1 | 0.00 | 0.00 | 0.00 | 44 | 1011.5 |
| 20260505151541 | 16 | 59 | 1.6 | 22.5 | 0.00 | 0.00 | 0.00 | 43 | 1011.5 |
| 20260505124541 | 17 | 80 | 4.8 | 16.1 | 0.00 | 0.00 | 0.00 | 50 | 1011.9 |
| 20260505123040 | 18 | 0 | 4.8 | 22.5 | 0.00 | 0.00 | 0.00 | 51 | 1011.9 |
| 20260505121539 | 17 | 0 | 1.6 | 22.5 | 0.00 | 0.00 | 0.00 | 55 | 1011.9 |
| 20260505120036 | 15 | 40 | 8.0 | 19.3 | 0.00 | 0.00 | 0.00 | 55 | 1012.0 |
| 20260505114541 | 16 | 0 | 0.0 | 25.7 | 0.00 | 0.00 | 0.00 | 55 | 1012.0 |
| 20260505113047 | 16 | 48 | 8.0 | 22.5 | 0.00 | 0.00 | 0.00 | 52 | 1012.2 |
| 20260505111537 | 16 | 40 | 4.8 | 19.3 | 0.00 | 0.00 | 0.00 | 58 | 1012.3 |
| 20260505101556 | 15 | 351 | 3.2 | 12.9 | 0.00 | 0.00 | 0.00 | 69 | 1012.3 |
| 20260505100055 | 13 | 0 | 1.6 | 17.7 | 0.00 | 0.00 | 0.00 | 69 | 1012.4 |
| 20260505094535 | 13 | 0 | 1.6 | 14.5 | 0.00 | 0.00 | 0.00 | 70 | 1012.6 |
| 20260505093035 | 13 | 5 | 1.6 | 12.9 | 0.00 | 0.00 | 0.00 | 70 | 1012.6 |
| 20260505091536 | 13 | 16 | 1.6 | 9.7 | 0.00 | 0.00 | 0.00 | 69 | 1012.7 |
| 20260505090036 | 12 | 30 | 6.4 | 16.1 | 0.00 | 0.00 | 0.00 | 72 | 1012.6 |
| 20260505084535 | 12 | 320 | 1.6 | 17.7 | 0.00 | 0.00 | 0.00 | 72 | 1012.7 |
| 20260505083038 | 12 | 313 | 0.0 | 14.5 | 0.00 | 0.00 | 0.00 | 74 | 1012.7 |
| 20260505081536 | 12 | 46 | 1.6 | 9.7 | 0.00 | 0.00 | 0.00 | 76 | 1012.7 |
| 20260505080046 | 11 | 310 | 1.6 | 14.5 | 0.00 | 0.00 | 0.00 | 78 | 1012.8 |
| 20260505074535 | 11 | 293 | 0.0 | 6.4 | 0.00 | 0.00 | 0.00 | 78 | 1012.8 |
| 20260505073104 | 11 | 0 | 0.0 | 14.5 | 0.00 | 0.00 | 0.00 | 78 | 1012.7 |
| 20260505071542 | 11 | 0 | 1.6 | 8.0 | 0.00 | 0.00 | 0.00 | 80 | 1012.5 |
| 20260505070037 | 11 | 0 | 0.0 | 6.4 | 0.00 | 0.00 | 0.00 | 81 | 1012.6 |
| 20260505064545 | 11 | 30 | 0.0 | 9.7 | 0.00 | 0.00 | 0.00 | 83 | 1012.8 |
| 20260505063047 | 11 | 84 | 1.6 | 9.7 | 0.00 | 0.00 | 0.00 | 86 | 1012.9 |
| 20260505061541 | 10 | 0 | 0.0 | 6.4 | 0.00 | 0.00 | 0.00 | 87 | 1013.0 |
| 20260505060046 | 10 | 0 | 1.6 | 12.9 | 0.00 | 0.00 | 0.00 | 88 | 1012.8 |
| 20260505054544 | 10 | 309 | 0.0 | 8.0 | 0.00 | 0.00 | 0.00 | 88 | 1012.8 |
| 20260505053046 | 10 | 0 | 0.0 | 3.2 | 0.00 | 0.00 | 0.00 | 88 | 1012.8 |
| 20260505051541 | 10 | 0 | 0.0 | 6.4 | 0.00 | 0.00 | 0.00 | 88 | 1012.8 |
| 20260505041539 | 10 | 0 | 0.0 | 14.5 | 0.00 | 0.00 | 0.00 | 87 | 1013.0 |
| 20260505040040 | 10 | 61 | 3.2 | 8.0 | 0.00 | 0.00 | 0.00 | 87 | 1013.0 |
| 20260505034546 | 10 | 32 | 0.0 | 4.8 | 0.00 | 0.00 | 0.00 | 87 | 1013.2 |
| 20260505033036 | 10 | 64 | 0.0 | 4.8 | 0.00 | 0.00 | 0.00 | 87 | 1013.2 |
| 20260505031547 | 10 | 0 | 0.0 | 9.7 | 0.00 | 0.00 | 0.00 | 87 | 1013.3 |
| 20260505030042 | 10 | 0 | 0.0 | 12.9 | 0.00 | 0.00 | 0.00 | 87 | 1013.2 |
| 20260505024536 | 10 | 47 | 6.4 | 17.7 | 0.00 | 0.00 | 0.00 | 87 | 1013.3 |
| 20260505023037 | 10 | 55 | 1.6 | 8.0 | 0.00 | 0.00 | 0.00 | 87 | 1013.5 |
| 20260505021537 | 10 | 0 | 1.6 | 8.0 | 0.00 | 0.00 | 0.00 | 87 | 1013.5 |
| 20260505020041 | 10 | 0 | 0.0 | 8.0 | 0.00 | 0.00 | 0.00 | 86 | 1013.6 |
| 20260505014540 | 10 | 0 | 0.0 | 6.4 | 0.00 | 0.00 | 0.00 | 86 | 1013.6 |
| 20260505013037 | 11 | 59 | 0.0 | 11.3 | 0.00 | 0.00 | 0.00 | 86 | 1013.9 |
| 20260505011538 | 11 | 53 | 0.0 | 4.8 | 0.00 | 0.00 | 0.00 | 86 | 1013.7 |
| 20260505010100 | 11 | 0 | 0.0 | 8.0 | 0.00 | 0.00 | 0.00 | 86 | 1014.0 |
| 20260505004541 | 11 | 0 | 0.0 | 8.0 | 0.00 | 0.00 | 0.00 | 86 | 1014.1 |
| 20260505003041 | 11 | 64 | 3.2 | 9.7 | 0.00 | 0.00 | 0.00 | 86 | 1014.3 |
| 20260505001536 | 11 | 75 | 1.6 | 12.9 | 0.00 | 0.00 | 0.00 | 86 | 1014.3 |
| 20260505000043 | 11 | 0 | 1.6 | 14.5 | 0.00 | 0.00 | 0.00 | 86 | 1014.3 |
| 20260504234536 | 11 | 0 | 0.0 | 8.0 | 0.00 | 0.00 | 0.00 | 86 | 1014.3 |
| 20260504233035 | 11 | 59 | 1.6 | 12.9 | 0.00 | 0.00 | 0.00 | 86 | 1014.2 |
| 20260504231544 | 11 | 0 | 0.0 | 6.4 | 0.00 | 0.00 | 0.00 | 86 | 1014.1 |
| 20260504230044 | 11 | 0 | 0.0 | 11.3 | 0.00 | 0.00 | 0.00 | 86 | 1014.3 |
| 20260504224536 | 11 | 0 | 0.0 | 4.8 | 0.00 | 0.00 | 0.00 | 85 | 1014.5 |
| 20260504223036 | 11 | 71 | 1.6 | 8.0 | 0.00 | 0.00 | 0.00 | 85 | 1014.5 |
| 20260504221548 | 12 | 60 | 0.0 | 1.6 | 0.00 | 0.00 | 0.00 | 84 | 1014.4 |
| 20260504220039 | 12 | 0 | 0.0 | 4.8 | 0.00 | 0.00 | 0.00 | 83 | 1014.5 |
| 20260504214535 | 12 | 0 | 0.0 | 3.2 | 0.00 | 0.00 | 0.00 | 83 | 1014.4 |
| 20260504213047 | 12 | 0 | 0.0 | 6.4 | 0.00 | 0.00 | 0.00 | 83 | 1014.4 |
| 20260504211540 | 12 | 0 | 0.0 | 8.0 | 0.00 | 0.00 | 0.00 | 82 | 1014.5 |
| 20260504210037 | 12 | 49 | 0.0 | 9.7 | 0.00 | 0.00 | 0.00 | 82 | 1014.5 |
| 20260504204538 | 12 | 40 | 0.0 | 6.4 | 0.00 | 0.00 | 0.00 | 82 | 1014.6 |
| 20260504203048 | 12 | 0 | 0.0 | 1.6 | 0.00 | 0.00 | 0.00 | 81 | 1014.5 |
| 20260504201535 | 13 | 0 | 0.0 | 1.6 | 0.00 | 0.00 | 0.00 | 80 | 1014.4 |
| 20260504200036 | 13 | 0 | 0.0 | 3.2 | 0.00 | 0.00 | 0.00 | 80 | 1014.3 |
| 20260504194544 | 13 | 0 | 0.0 | 3.2 | 0.00 | 0.00 | 0.00 | 79 | 1014.3 |
| 20260504193039 | 13 | 0 | 0.0 | 3.2 | 0.00 | 0.00 | 0.00 | 79 | 1014.0 |
| 20260504191540 | 13 | 0 | 0.0 | 1.6 | 0.00 | 0.00 | 0.00 | 77 | 1013.9 |
| 20260504190038 | 14 | 0 | 0.0 | 3.2 | 0.00 | 0.00 | 0.00 | 76 | 1013.9 |
| 20260504184535 | 14 | 0 | 0.0 | 4.8 | 0.00 | 0.00 | 0.00 | 74 | 1013.8 |
| 20260504183043 | 15 | 0 | 0.0 | 9.7 | 0.00 | 0.00 | 0.00 | 73 | 1013.7 |
| 20260504181540 | 15 | 0 | 0.0 | 14.5 | 0.00 | 0.00 | 0.00 | 72 | 1013.7 |